Year,Month,Day,Hour,Minute,Value (Times are PST for barometer in hPa)
2011,11,24,00,00,1006.57
2011,11,24,00,01,1006.54
2011,11,24,00,02,1006.54
2011,11,24,00,03,1006.60
2011,11,24,00,04,1006.57
2011,11,24,00,05,1006.60
2011,11,24,00,06,1006.54
2011,11,24,00,07,1006.54
2011,11,24,00,08,1006.57
2011,11,24,00,09,1006.57
2011,11,24,00,10,1006.57
2011,11,24,00,11,1006.57
2011,11,24,00,12,1006.54
2011,11,24,00,13,1006.60
2011,11,24,00,14,1006.64
2011,11,24,00,15,1006.67
2011,11,24,00,16,1006.67
2011,11,24,00,17,1006.71
2011,11,24,00,18,1006.67
2011,11,24,00,19,1006.64
2011,11,24,00,20,1006.71
2011,11,24,00,21,1006.64
2011,11,24,00,22,1006.64
2011,11,24,00,23,1006.57
2011,11,24,00,24,1006.60
2011,11,24,00,25,1006.64
2011,11,24,00,26,1006.57
2011,11,24,00,27,1006.57
2011,11,24,00,28,1006.57
2011,11,24,00,29,1006.64
2011,11,24,00,30,1006.54
2011,11,24,00,31,1006.60
2011,11,24,00,32,1006.60
2011,11,24,00,33,1006.64
2011,11,24,00,34,1006.64
2011,11,24,00,35,1006.67
2011,11,24,00,36,1006.67
2011,11,24,00,37,1006.67
2011,11,24,00,38,1006.67
2011,11,24,00,39,1006.74
2011,11,24,00,40,1006.77
2011,11,24,00,41,1006.74
2011,11,24,00,42,1006.74
2011,11,24,00,43,1006.74
2011,11,24,00,44,1006.77
2011,11,24,00,45,1006.74
2011,11,24,00,46,1006.71
2011,11,24,00,47,1006.71
2011,11,24,00,48,1006.74
2011,11,24,00,49,1006.71
2011,11,24,00,50,1006.64
2011,11,24,00,51,1006.67
2011,11,24,00,52,1006.67
2011,11,24,00,53,1006.67
2011,11,24,00,54,1006.64
2011,11,24,00,55,1006.64
2011,11,24,00,56,1006.64
2011,11,24,00,57,1006.60
2011,11,24,00,58,1006.60
2011,11,24,00,59,1006.64
2011,11,24,01,00,1006.60
2011,11,24,01,01,1006.57
2011,11,24,01,02,1006.57
2011,11,24,01,03,1006.54
2011,11,24,01,04,1006.50
2011,11,24,01,05,1006.50
2011,11,24,01,06,1006.44
2011,11,24,01,07,1006.40
2011,11,24,01,08,1006.40
2011,11,24,01,09,1006.43
2011,11,24,01,10,1006.33
2011,11,24,01,11,1006.40
2011,11,24,01,12,1006.40
2011,11,24,01,13,1006.40
2011,11,24,01,14,1006.37
2011,11,24,01,15,1006.37
2011,11,24,01,16,1006.37
2011,11,24,01,17,1006.40
2011,11,24,01,18,1006.37
2011,11,24,01,19,1006.37
2011,11,24,01,20,1006.33
2011,11,24,01,21,1006.37
2011,11,24,01,22,1006.33
2011,11,24,01,23,1006.33
2011,11,24,01,24,1006.37
2011,11,24,01,25,1006.33
2011,11,24,01,26,1006.33
2011,11,24,01,27,1006.33
2011,11,24,01,28,1006.30
2011,11,24,01,29,1006.37
2011,11,24,01,30,1006.30
2011,11,24,01,31,1006.27
2011,11,24,01,32,1006.30
2011,11,24,01,33,1006.23
2011,11,24,01,34,1006.23
2011,11,24,01,35,1006.23
2011,11,24,01,36,1006.27
2011,11,24,01,37,1006.23
2011,11,24,01,38,1006.20
2011,11,24,01,39,1006.23
2011,11,24,01,40,1006.16
2011,11,24,01,41,1006.23
2011,11,24,01,42,1006.20
2011,11,24,01,43,1006.20
2011,11,24,01,44,1006.16
2011,11,24,01,45,1006.13
2011,11,24,01,46,1006.16
2011,11,24,01,47,1006.06
2011,11,24,01,48,1006.10
2011,11,24,01,49,1006.06
2011,11,24,01,50,1006.03
2011,11,24,01,51,1005.99
2011,11,24,01,52,1006.03
2011,11,24,01,53,1005.99
2011,11,24,01,54,1005.93
2011,11,24,01,55,1005.92
2011,11,24,01,56,1005.79
2011,11,24,01,57,1005.76
2011,11,24,01,58,1005.72
2011,11,24,01,59,1005.69
2011,11,24,02,00,1005.72
2011,11,24,02,01,1005.72
2011,11,24,02,02,1005.69
2011,11,24,02,03,1005.66
2011,11,24,02,04,1005.69
2011,11,24,02,05,1005.69
2011,11,24,02,06,1005.66
2011,11,24,02,07,1005.66
2011,11,24,02,08,1005.69
2011,11,24,02,09,1005.66
2011,11,24,02,10,1005.69
2011,11,24,02,11,1005.66
2011,11,24,02,12,1005.62
2011,11,24,02,13,1005.66
2011,11,24,02,14,1005.62
2011,11,24,02,15,1005.62
2011,11,24,02,16,1005.66
2011,11,24,02,17,1005.66
2011,11,24,02,18,1005.62
2011,11,24,02,19,1005.66
2011,11,24,02,20,1005.62
2011,11,24,02,21,1005.55
2011,11,24,02,22,1005.59
2011,11,24,02,23,1005.52
2011,11,24,02,24,1005.55
2011,11,24,02,25,1005.62
2011,11,24,02,26,1005.59
2011,11,24,02,27,1005.59
2011,11,24,02,28,1005.62
2011,11,24,02,29,1005.59
2011,11,24,02,30,1005.55
2011,11,24,02,31,1005.55
2011,11,24,02,32,1005.55
2011,11,24,02,33,1005.55
2011,11,24,02,34,1005.55
2011,11,24,02,35,1005.52
2011,11,24,02,36,1005.49
2011,11,24,02,37,1005.52
2011,11,24,02,38,1005.49
2011,11,24,02,39,1005.49
2011,11,24,02,40,1005.49
2011,11,24,02,41,1005.49
2011,11,24,02,42,1005.45
2011,11,24,02,43,1005.45
2011,11,24,02,44,1005.42
2011,11,24,02,45,1005.42
2011,11,24,02,46,1005.45
2011,11,24,02,47,1005.42
2011,11,24,02,48,1005.39
2011,11,24,02,49,1005.35
2011,11,24,02,50,1005.35
2011,11,24,02,51,1005.32
2011,11,24,02,52,1005.35
2011,11,24,02,53,1005.28
2011,11,24,02,54,1005.35
2011,11,24,02,55,1005.28
2011,11,24,02,56,1005.28
2011,11,24,02,57,1005.22
2011,11,24,02,58,1005.29
2011,11,24,02,59,1005.39
2011,11,24,03,00,1005.32
2011,11,24,03,01,1005.35
2011,11,24,03,02,1005.35
2011,11,24,03,06,1005.52
2011,11,24,03,07,1005.52
2011,11,24,03,08,1005.52
2011,11,24,03,09,1005.52
2011,11,24,03,10,1005.52
2011,11,24,03,11,1005.52
2011,11,24,03,12,1005.52
2011,11,24,03,13,1005.55
2011,11,24,03,14,1005.59
2011,11,24,03,15,1005.55
2011,11,24,03,16,1005.59
2011,11,24,03,17,1005.59
2011,11,24,03,18,1005.59
2011,11,24,03,19,1005.59
2011,11,24,03,20,1005.62
2011,11,24,03,21,1005.59
2011,11,24,03,22,1005.55
2011,11,24,03,23,1005.55
2011,11,24,03,24,1005.52
2011,11,24,03,25,1005.52
2011,11,24,03,26,1005.53
2011,11,24,03,27,1005.62
2011,11,24,03,28,1005.59
2011,11,24,03,29,1005.55
2011,11,24,03,30,1005.49
2011,11,24,03,31,1005.48
2011,11,24,03,32,1005.42
2011,11,24,03,33,1005.39
2011,11,24,03,34,1005.35
2011,11,24,03,35,1005.31
2011,11,24,03,36,1005.26
2011,11,24,03,37,1005.31
2011,11,24,03,38,1005.22
2011,11,24,03,39,1005.24
2011,11,24,03,40,1005.19
2011,11,24,03,41,1005.25
2011,11,24,03,42,1005.22
2011,11,24,03,43,1005.18
2011,11,24,03,44,1005.18
2011,11,24,03,45,1005.18
2011,11,24,03,46,1005.18
2011,11,24,03,47,1005.22
2011,11,24,03,48,1005.25
2011,11,24,03,49,1005.22
2011,11,24,03,50,1005.18
2011,11,24,03,51,1005.15
2011,11,24,03,52,1005.15
2011,11,24,03,53,1005.11
2011,11,24,03,54,1005.15
2011,11,24,03,55,1005.18
2011,11,24,03,56,1005.15
2011,11,24,03,57,1005.17
2011,11,24,03,58,1005.11
2011,11,24,03,59,1005.11
2011,11,24,04,00,1005.08
2011,11,24,04,01,1005.05
2011,11,24,04,02,1005.05
2011,11,24,04,03,1005.11
2011,11,24,04,04,1005.05
2011,11,24,04,05,1005.05
2011,11,24,04,06,1005.01
2011,11,24,04,07,1004.98
2011,11,24,04,08,1004.95
2011,11,24,04,09,1004.95
2011,11,24,04,10,1004.98
2011,11,24,04,11,1004.98
2011,11,24,04,12,1004.98
2011,11,24,04,13,1004.95
2011,11,24,04,14,1004.95
2011,11,24,04,15,1004.91
2011,11,24,04,16,1004.88
2011,11,24,04,17,1004.91
2011,11,24,04,18,1004.88
2011,11,24,04,19,1004.84
2011,11,24,04,20,1004.88
2011,11,24,04,21,1004.88
2011,11,24,04,22,1004.84
2011,11,24,04,23,1004.91
2011,11,24,04,24,1004.91
2011,11,24,04,25,1004.91
2011,11,24,04,26,1004.95
2011,11,24,04,27,1004.91
2011,11,24,04,28,1004.95
2011,11,24,04,29,1004.95
2011,11,24,04,30,1004.91
2011,11,24,04,31,1004.95
2011,11,24,04,32,1004.91
2011,11,24,04,33,1004.88
2011,11,24,04,34,1004.84
2011,11,24,04,35,1004.81
2011,11,24,04,36,1004.81
2011,11,24,04,37,1004.84
2011,11,24,04,38,1004.84
2011,11,24,04,39,1004.84
2011,11,24,04,40,1004.84
2011,11,24,04,41,1004.81
2011,11,24,04,42,1004.84
2011,11,24,04,43,1004.78
2011,11,24,04,44,1004.77
2011,11,24,04,45,1004.68
2011,11,24,04,46,1004.73
2011,11,24,04,47,1004.64
2011,11,24,04,48,1004.64
2011,11,24,04,49,1004.65
2011,11,24,04,50,1004.74
2011,11,24,04,51,1004.74
2011,11,24,04,52,1004.78
2011,11,24,04,53,1004.80
2011,11,24,04,54,1004.74
2011,11,24,04,55,1004.71
2011,11,24,04,56,1004.66
2011,11,24,04,57,1004.57
2011,11,24,04,58,1004.61
2011,11,24,04,59,1004.60
2011,11,24,05,00,1004.54
2011,11,24,05,01,1004.54
2011,11,24,05,02,1004.54
2011,11,24,05,03,1004.50
2011,11,24,05,04,1004.43
2011,11,24,05,05,1004.37
2011,11,24,05,06,1004.37
2011,11,24,05,07,1004.34
2011,11,24,05,08,1004.37
2011,11,24,05,09,1004.34
2011,11,24,05,10,1004.30
2011,11,24,05,11,1004.26
2011,11,24,05,12,1004.19
2011,11,24,05,13,1004.00
2011,11,24,05,14,1003.96
2011,11,24,05,15,1003.97
2011,11,24,05,16,1004.05
2011,11,24,05,17,1003.93
2011,11,24,05,18,1003.96
2011,11,24,05,19,1003.96
2011,11,24,05,20,1004.00
2011,11,24,05,21,1004.00
2011,11,24,05,22,1004.06
2011,11,24,05,23,1004.10
2011,11,24,05,24,1004.14
2011,11,24,05,25,1004.20
2011,11,24,05,26,1004.19
2011,11,24,05,27,1004.13
2011,11,24,05,28,1004.09
2011,11,24,05,29,1004.02
2011,11,24,05,30,1003.89
2011,11,24,05,31,1003.84
2011,11,24,05,32,1003.91
2011,11,24,05,33,1003.76
2011,11,24,05,34,1003.73
2011,11,24,05,35,1003.69
2011,11,24,05,36,1003.69
2011,11,24,05,37,1003.69
2011,11,24,05,38,1003.62
2011,11,24,05,39,1003.62
2011,11,24,05,40,1003.62
2011,11,24,05,41,1003.56
2011,11,24,05,42,1003.52
2011,11,24,05,43,1003.55
2011,11,24,05,44,1003.42
2011,11,24,05,45,1003.34
2011,11,24,05,46,1003.29
2011,11,24,05,47,1003.22
2011,11,24,05,48,1003.14
2011,11,24,05,49,1003.01
2011,11,24,05,50,1002.98
2011,11,24,05,51,1002.98
2011,11,24,05,52,1002.95
2011,11,24,05,53,1002.95
2011,11,24,05,54,1002.95
2011,11,24,05,55,1002.91
2011,11,24,05,56,1002.91
2011,11,24,05,57,1002.91
2011,11,24,05,58,1002.98
2011,11,24,05,59,1002.97
2011,11,24,06,00,1002.91
2011,11,24,06,01,1003.02
2011,11,24,06,02,1003.07
2011,11,24,06,03,1002.95
2011,11,24,06,04,1002.91
2011,11,24,06,05,1002.88
2011,11,24,06,06,1002.87
2011,11,24,06,07,1002.81
2011,11,24,06,08,1002.81
2011,11,24,06,09,1002.78
2011,11,24,06,10,1002.81
2011,11,24,06,11,1002.86
2011,11,24,06,12,1002.91
2011,11,24,06,13,1002.91
2011,11,24,06,14,1002.88
2011,11,24,06,15,1002.91
2011,11,24,06,16,1002.88
2011,11,24,06,17,1002.97
2011,11,24,06,18,1002.88
2011,11,24,06,19,1002.88
2011,11,24,06,20,1002.95
2011,11,24,06,21,1002.85
2011,11,24,06,22,1002.81
2011,11,24,06,23,1002.89
2011,11,24,06,24,1002.98
2011,11,24,06,25,1002.91
2011,11,24,06,26,1002.91
2011,11,24,06,27,1002.91
2011,11,24,06,28,1002.82
2011,11,24,06,29,1002.88
2011,11,24,06,30,1002.88
2011,11,24,06,31,1002.91
2011,11,24,06,32,1002.87
2011,11,24,06,33,1002.78
2011,11,24,06,34,1002.78
2011,11,24,06,35,1002.78
2011,11,24,06,36,1002.78
2011,11,24,06,37,1002.78
2011,11,24,06,38,1002.71
2011,11,24,06,39,1002.64
2011,11,24,06,40,1002.71
2011,11,24,06,41,1002.64
2011,11,24,06,42,1002.61
2011,11,24,06,43,1002.68
2011,11,24,06,44,1002.71
2011,11,24,06,45,1002.74
2011,11,24,06,46,1002.74
2011,11,24,06,47,1002.78
2011,11,24,06,48,1002.71
2011,11,24,06,49,1002.71
2011,11,24,06,50,1002.61
2011,11,24,06,51,1002.64
2011,11,24,06,52,1002.61
2011,11,24,06,53,1002.68
2011,11,24,06,54,1002.74
2011,11,24,06,55,1002.78
2011,11,24,06,56,1002.71
2011,11,24,06,57,1002.61
2011,11,24,06,58,1002.57
2011,11,24,06,59,1002.54
2011,11,24,07,00,1002.51
2011,11,24,07,01,1002.41
2011,11,24,07,02,1002.44
2011,11,24,07,03,1002.37
2011,11,24,07,04,1002.34
2011,11,24,07,05,1002.27
2011,11,24,07,06,1002.30
2011,11,24,07,07,1002.24
2011,11,24,07,08,1002.20
2011,11,24,07,09,1002.13
2011,11,24,07,10,1002.09
2011,11,24,07,11,1002.00
2011,11,24,07,12,1001.93
2011,11,24,07,13,1001.86
2011,11,24,07,14,1001.85
2011,11,24,07,15,1001.76
2011,11,24,07,16,1001.75
2011,11,24,07,17,1001.66
2011,11,24,07,18,1001.58
2011,11,24,07,19,1001.46
2011,11,24,07,20,1001.42
2011,11,24,07,21,1001.39
2011,11,24,07,22,1001.39
2011,11,24,07,23,1001.39
2011,11,24,07,24,1001.36
2011,11,24,07,25,1001.39
2011,11,24,07,26,1001.39
2011,11,24,07,27,1001.42
2011,11,24,07,28,1001.36
2011,11,24,07,29,1001.36
2011,11,24,07,30,1001.36
2011,11,24,07,31,1001.32
2011,11,24,07,32,1001.36
2011,11,24,07,33,1001.29
2011,11,24,07,34,1001.29
2011,11,24,07,35,1001.29
2011,11,24,07,36,1001.32
2011,11,24,07,37,1001.25
2011,11,24,07,38,1001.25
2011,11,24,07,39,1001.19
2011,11,24,07,40,1001.19
2011,11,24,07,41,1001.15
2011,11,24,07,42,1001.05
2011,11,24,07,43,1000.98
2011,11,24,07,44,1000.92
2011,11,24,07,45,1000.98
2011,11,24,07,46,1000.95
2011,11,24,07,47,1000.98
2011,11,24,07,48,1000.98
2011,11,24,07,49,1000.92
2011,11,24,07,50,1000.98
2011,11,24,07,51,1000.98
2011,11,24,07,52,1000.95
2011,11,24,07,53,1000.92
2011,11,24,07,54,1000.85
2011,11,24,07,55,1000.85
2011,11,24,07,56,1000.92
2011,11,24,07,57,1000.85
2011,11,24,07,58,1000.88
2011,11,24,07,59,1000.81
2011,11,24,08,00,1000.88
2011,11,24,08,01,1000.88
2011,11,24,08,02,1000.92
2011,11,24,08,03,1001.02
2011,11,24,08,04,1001.05
2011,11,24,08,05,1001.08
2011,11,24,08,06,1001.07
2011,11,24,08,07,1000.85
2011,11,24,08,08,1000.92
2011,11,24,08,09,1000.92
2011,11,24,08,10,1000.92
2011,11,24,08,11,1000.92
2011,11,24,08,12,1000.95
2011,11,24,08,13,1000.92
2011,11,24,08,14,1000.88
2011,11,24,08,15,1000.81
2011,11,24,08,16,1000.78
2011,11,24,08,17,1000.75
2011,11,24,08,18,1000.78
2011,11,24,08,19,1000.81
2011,11,24,08,20,1000.88
2011,11,24,08,21,1000.88
2011,11,24,08,22,1000.88
2011,11,24,08,23,1000.81
2011,11,24,08,24,1000.81
2011,11,24,08,25,1000.75
2011,11,24,08,26,1000.67
2011,11,24,08,27,1000.58
2011,11,24,08,28,1000.51
2011,11,24,08,29,1000.48
2011,11,24,08,30,1000.52
2011,11,24,08,31,1000.61
2011,11,24,08,32,1000.61
2011,11,24,08,33,1000.61
2011,11,24,08,34,1000.61
2011,11,24,08,35,1000.68
2011,11,24,08,36,1000.68
2011,11,24,08,37,1000.64
2011,11,24,08,38,1000.68
2011,11,24,08,39,1000.68
2011,11,24,08,40,1000.63
2011,11,24,08,41,1000.44
2011,11,24,08,42,1000.41
2011,11,24,08,43,1000.23
2011,11,24,08,44,1000.03
2011,11,24,08,45,1000.03
2011,11,24,08,46,999.99
2011,11,24,08,47,999.86
2011,11,24,08,48,999.76
2011,11,24,08,49,999.69
2011,11,24,08,50,999.53
2011,11,24,08,51,999.45
2011,11,24,08,52,999.32
2011,11,24,08,53,999.22
2011,11,24,08,54,999.26
2011,11,24,08,55,999.09
2011,11,24,08,56,999.15
2011,11,24,08,57,999.19
2011,11,24,08,58,999.20
2011,11,24,08,59,999.32
2011,11,24,09,00,999.39
2011,11,24,09,01,999.46
2011,11,24,09,02,999.49
2011,11,24,09,03,999.47
2011,11,24,09,04,999.56
2011,11,24,09,05,999.56
2011,11,24,09,06,999.56
2011,11,24,09,07,999.59
2011,11,24,09,08,999.63
2011,11,24,09,09,999.59
2011,11,24,09,10,999.59
2011,11,24,09,11,999.59
2011,11,24,09,12,999.56
2011,11,24,09,13,999.56
2011,11,24,09,14,999.49
2011,11,24,09,15,999.53
2011,11,24,09,16,999.56
2011,11,24,09,17,999.53
2011,11,24,09,18,999.43
2011,11,24,09,19,999.36
2011,11,24,09,20,999.28
2011,11,24,09,21,999.19
2011,11,24,09,22,999.19
2011,11,24,09,23,999.15
2011,11,24,09,24,999.15
2011,11,24,09,25,999.05
2011,11,24,09,26,998.99
2011,11,24,09,27,998.95
2011,11,24,09,28,998.92
2011,11,24,09,29,998.85
2011,11,24,09,30,998.99
2011,11,24,09,31,998.88
2011,11,24,09,32,998.78
2011,11,24,09,33,998.82
2011,11,24,09,34,998.85
2011,11,24,09,35,998.78
2011,11,24,09,36,998.75
2011,11,24,09,37,998.82
2011,11,24,09,38,998.71
2011,11,24,09,39,998.68
2011,11,24,09,40,998.61
2011,11,24,09,41,998.60
2011,11,24,09,42,998.51
2011,11,24,09,43,998.41
2011,11,24,09,44,998.38
2011,11,24,09,45,998.38
2011,11,24,09,46,998.21
2011,11,24,09,47,998.21
2011,11,24,09,48,998.24
2011,11,24,09,49,998.17
2011,11,24,09,50,998.24
2011,11,24,09,51,998.17
2011,11,24,09,52,998.17
2011,11,24,09,53,998.22
2011,11,24,09,54,998.31
2011,11,24,09,55,998.31
2011,11,24,09,56,998.24
2011,11,24,09,57,998.24
2011,11,24,09,58,998.21
2011,11,24,09,59,998.17
2011,11,24,10,00,998.14
2011,11,24,10,01,998.21
2011,11,24,10,02,998.14
2011,11,24,10,03,998.14
2011,11,24,10,04,998.10
2011,11,24,10,05,998.10
2011,11,24,10,06,998.03
2011,11,24,10,07,997.78
2011,11,24,10,08,997.90
2011,11,24,10,09,997.96
2011,11,24,10,10,997.77
2011,11,24,10,11,997.70
2011,11,24,10,12,997.66
2011,11,24,10,13,997.60
2011,11,24,10,14,997.60
2011,11,24,10,15,997.63
2011,11,24,10,16,997.60
2011,11,24,10,17,997.63
2011,11,24,10,18,997.63
2011,11,24,10,19,997.66
2011,11,24,10,20,997.70
2011,11,24,10,21,997.66
2011,11,24,10,22,997.66
2011,11,24,10,23,997.70
2011,11,24,10,24,997.63
2011,11,24,10,25,997.62
2011,11,24,10,26,997.46
2011,11,24,10,27,997.43
2011,11,24,10,28,997.43
2011,11,24,10,29,997.39
2011,11,24,10,30,997.29
2011,11,24,10,31,997.35
2011,11,24,10,32,997.12
2011,11,24,10,33,997.17
2011,11,24,10,34,997.29
2011,11,24,10,35,997.22
2011,11,24,10,36,997.28
2011,11,24,10,37,997.15
2011,11,24,10,38,997.05
2011,11,24,10,39,997.05
2011,11,24,10,40,997.02
2011,11,24,10,41,996.95
2011,11,24,10,42,996.89
2011,11,24,10,43,996.92
2011,11,24,10,44,996.85
2011,11,24,10,45,996.92
2011,11,24,10,46,996.85
2011,11,24,10,47,996.81
2011,11,24,10,48,996.61
2011,11,24,10,49,996.65
2011,11,24,10,50,996.61
2011,11,24,10,51,996.65
2011,11,24,10,52,996.58
2011,11,24,10,53,996.55
2011,11,24,10,54,996.61
2011,11,24,10,55,996.55
2011,11,24,10,56,996.65
2011,11,24,10,57,996.65
2011,11,24,10,58,996.61
2011,11,24,10,59,996.67
2011,11,24,11,00,996.51
2011,11,24,11,01,996.45
2011,11,24,11,02,996.58
2011,11,24,11,03,996.41
2011,11,24,11,04,996.41
2011,11,24,11,05,996.34
2011,11,24,11,06,996.30
2011,11,24,11,07,996.01
2011,11,24,11,08,996.01
2011,11,24,11,09,996.07
2011,11,24,11,10,996.07
2011,11,24,11,11,996.00
2011,11,24,11,12,995.84
2011,11,24,11,13,995.80
2011,11,24,11,14,995.80
2011,11,24,11,15,995.84
2011,11,24,11,16,995.77
2011,11,24,11,17,995.73
2011,11,24,11,18,995.84
2011,11,24,11,19,995.77
2011,11,24,11,20,995.80
2011,11,24,11,21,995.67
2011,11,24,11,22,995.53
2011,11,24,11,23,995.53
2011,11,24,11,24,995.60
2011,11,24,11,25,995.55
2011,11,24,11,26,995.45
2011,11,24,11,27,995.26
2011,11,24,11,28,995.26
2011,11,24,11,29,995.23
2011,11,24,11,30,995.34
2011,11,24,11,31,995.43
2011,11,24,11,32,995.33
2011,11,24,11,33,995.17
2011,11,24,11,34,995.36
2011,11,24,11,35,995.33
2011,11,24,11,36,995.33
2011,11,24,11,37,995.29
2011,11,24,11,38,995.26
2011,11,24,11,39,995.29
2011,11,24,11,40,995.09
2011,11,24,11,41,995.12
2011,11,24,11,42,995.08
2011,11,24,11,43,994.89
2011,11,24,11,44,994.82
2011,11,24,11,45,994.82
2011,11,24,11,46,994.82
2011,11,24,11,47,994.82
2011,11,24,11,48,994.81
2011,11,24,11,49,994.62
2011,11,24,11,50,994.58
2011,11,24,11,51,994.48
2011,11,24,11,52,994.58
2011,11,24,11,53,994.58
2011,11,24,11,54,994.62
2011,11,24,11,55,994.62
2011,11,24,11,56,994.35
2011,11,24,11,57,994.40
2011,11,24,11,58,994.21
2011,11,24,11,59,994.28
2011,11,24,12,00,994.28
2011,11,24,12,01,994.18
2011,11,24,12,02,994.14
2011,11,24,12,03,993.94
2011,11,24,12,04,993.97
2011,11,24,12,05,993.70
2011,11,24,12,06,993.74
2011,11,24,12,07,993.74
2011,11,24,12,08,993.59
2011,11,24,12,09,993.49
2011,11,24,12,10,993.37
2011,11,24,12,11,993.49
2011,11,24,12,12,993.26
2011,11,24,12,13,993.13
2011,11,24,12,14,993.05
2011,11,24,12,15,992.96
2011,11,24,12,16,992.99
2011,11,24,12,17,993.09
2011,11,24,12,18,993.16
2011,11,24,12,19,993.09
2011,11,24,12,20,993.09
2011,11,24,12,21,993.13
2011,11,24,12,22,993.09
2011,11,24,12,23,993.02
2011,11,24,12,24,992.89
2011,11,24,12,25,992.86
2011,11,24,12,26,992.86
2011,11,24,12,27,992.89
2011,11,24,12,28,992.89
2011,11,24,12,29,992.89
2011,11,24,12,30,992.96
2011,11,24,12,31,992.96
2011,11,24,12,32,992.99
2011,11,24,12,33,992.96
2011,11,24,12,34,992.89
2011,11,24,12,35,992.82
2011,11,24,12,36,992.92
2011,11,24,12,37,992.79
2011,11,24,12,38,992.86
2011,11,24,12,39,992.89
2011,11,24,12,40,992.86
2011,11,24,12,41,992.86
2011,11,24,12,42,992.72
2011,11,24,12,43,992.72
2011,11,24,12,44,992.79
2011,11,24,12,45,992.69
2011,11,24,12,46,992.69
2011,11,24,12,47,992.69
2011,11,24,12,48,992.69
2011,11,24,12,49,992.79
2011,11,24,12,50,992.75
2011,11,24,12,51,992.82
2011,11,24,12,52,992.75
2011,11,24,12,53,992.72
2011,11,24,12,54,992.62
2011,11,24,12,55,992.65
2011,11,24,12,56,992.55
2011,11,24,12,57,992.58
2011,11,24,12,58,992.55
2011,11,24,12,59,992.62
2011,11,24,13,00,992.65
2011,11,24,13,01,992.75
2011,11,24,13,02,992.72
2011,11,24,13,03,992.52
2011,11,24,13,04,992.65
2011,11,24,13,05,992.69
2011,11,24,13,06,992.68
2011,11,24,13,07,992.48
2011,11,24,13,08,992.52
2011,11,24,13,09,992.52
2011,11,24,13,10,992.62
2011,11,24,13,11,992.65
2011,11,24,13,12,992.62
2011,11,24,13,13,992.62
2011,11,24,13,14,992.86
2011,11,24,13,15,992.73
2011,11,24,13,16,992.96
2011,11,24,13,17,992.92
2011,11,24,13,18,992.93
2011,11,24,13,19,993.06
2011,11,24,13,20,992.99
2011,11,24,13,21,993.03
2011,11,24,13,22,993.03
2011,11,24,13,23,993.07
2011,11,24,13,24,993.19
2011,11,24,13,25,993.26
2011,11,24,13,26,993.30
2011,11,24,13,27,993.33
2011,11,24,13,28,993.33
2011,11,24,13,29,993.26
2011,11,24,13,30,993.40
2011,11,24,13,31,993.36
2011,11,24,13,32,993.23
2011,11,24,13,33,993.40
2011,11,24,13,34,993.23
2011,11,24,13,35,993.47
2011,11,24,13,36,993.36
2011,11,24,13,37,993.24
2011,11,24,13,38,993.36
2011,11,24,13,39,993.40
2011,11,24,13,40,993.30
2011,11,24,13,41,993.33
2011,11,24,13,42,993.26
2011,11,24,13,43,993.23
2011,11,24,13,44,993.09
2011,11,24,13,45,993.06
2011,11,24,13,46,992.99
2011,11,24,13,47,992.82
2011,11,24,13,48,992.85
2011,11,24,13,49,992.65
2011,11,24,13,50,992.69
2011,11,24,13,51,992.69
2011,11,24,13,52,992.65
2011,11,24,13,53,992.55
2011,11,24,13,54,992.48
2011,11,24,13,55,992.48
2011,11,24,13,56,992.48
2011,11,24,13,57,992.42
2011,11,24,13,58,992.48
2011,11,24,13,59,992.45
2011,11,24,14,00,992.48
2011,11,24,14,01,992.45
2011,11,24,14,02,992.48
2011,11,24,14,03,992.45
2011,11,24,14,04,992.45
2011,11,24,14,05,992.55
2011,11,24,14,06,992.58
2011,11,24,14,07,992.58
2011,11,24,14,08,992.62
2011,11,24,14,09,992.65
2011,11,24,14,10,992.72
2011,11,24,14,11,992.75
2011,11,24,14,12,992.75
2011,11,24,14,13,992.72
2011,11,24,14,14,992.69
2011,11,24,14,15,992.62
2011,11,24,14,16,992.69
2011,11,24,14,17,992.58
2011,11,24,14,18,992.62
2011,11,24,14,19,992.69
2011,11,24,14,20,992.62
2011,11,24,14,21,992.65
2011,11,24,14,22,992.72
2011,11,24,14,23,992.79
2011,11,24,14,24,992.75
2011,11,24,14,25,992.82
2011,11,24,14,26,992.75
2011,11,24,14,27,992.75
2011,11,24,14,28,992.69
2011,11,24,14,29,992.69
2011,11,24,14,30,992.65
2011,11,24,14,31,992.69
2011,11,24,14,32,992.62
2011,11,24,14,33,992.68
2011,11,24,14,34,992.62
2011,11,24,14,35,992.58
2011,11,24,14,36,992.62
2011,11,24,14,37,992.65
2011,11,24,14,38,992.62
2011,11,24,14,39,992.65
2011,11,24,14,40,992.65
2011,11,24,14,41,992.65
2011,11,24,14,42,992.62
2011,11,24,14,43,992.72
2011,11,24,14,44,992.75
2011,11,24,14,45,992.72
2011,11,24,14,46,992.69
2011,11,24,14,47,992.65
2011,11,24,14,48,992.82
2011,11,24,14,49,992.82
2011,11,24,14,50,992.86
2011,11,24,14,51,992.82
2011,11,24,14,52,992.55
2011,11,24,14,53,992.62
2011,11,24,14,54,992.58
2011,11,24,14,55,992.55
2011,11,24,14,56,992.52
2011,11,24,14,57,992.55
2011,11,24,14,58,992.58
2011,11,24,14,59,992.62
2011,11,24,15,00,992.69
2011,11,24,15,01,992.78
2011,11,24,15,02,992.89
2011,11,24,15,03,992.86
2011,11,24,15,04,992.81
2011,11,24,15,05,992.65
2011,11,24,15,06,992.21
2011,11,24,15,07,991.98
2011,11,24,15,08,991.94
2011,11,24,15,09,991.87
2011,11,24,15,10,991.87
2011,11,24,15,11,991.84
2011,11,24,15,12,991.70
2011,11,24,15,13,991.81
2011,11,24,15,14,991.91
2011,11,24,15,15,991.94
2011,11,24,15,16,991.98
2011,11,24,15,17,991.91
2011,11,24,15,18,991.98
2011,11,24,15,19,992.01
2011,11,24,15,20,991.98
2011,11,24,15,21,991.94
2011,11,24,15,22,991.98
2011,11,24,15,23,991.98
2011,11,24,15,24,992.01
2011,11,24,15,25,992.14
2011,11,24,15,26,992.04
2011,11,24,15,27,992.01
2011,11,24,15,28,992.04
2011,11,24,15,29,992.01
2011,11,24,15,30,991.94
2011,11,24,15,31,991.94
2011,11,24,15,32,991.91
2011,11,24,15,33,991.94
2011,11,24,15,34,992.04
2011,11,24,15,35,991.94
2011,11,24,15,36,991.98
2011,11,24,15,37,992.04
2011,11,24,15,38,992.08
2011,11,24,15,39,992.04
2011,11,24,15,40,992.04
2011,11,24,15,41,992.11
2011,11,24,15,42,992.14
2011,11,24,15,43,992.21
2011,11,24,15,44,992.21
2011,11,24,15,45,992.25
2011,11,24,15,46,992.25
2011,11,24,15,47,992.18
2011,11,24,15,48,992.21
2011,11,24,15,49,992.31
2011,11,24,15,50,992.18
2011,11,24,15,51,992.08
2011,11,24,15,52,992.11
2011,11,24,15,53,992.14
2011,11,24,15,54,991.98
2011,11,24,15,55,992.04
2011,11,24,15,56,991.91
2011,11,24,15,57,991.98
2011,11,24,15,58,991.94
2011,11,24,15,59,991.91
2011,11,24,16,00,991.94
2011,11,24,16,01,992.01
2011,11,24,16,02,992.11
2011,11,24,16,03,992.14
2011,11,24,16,04,992.25
2011,11,24,16,05,992.52
2011,11,24,16,06,992.58
2011,11,24,16,07,992.48
2011,11,24,16,08,992.55
2011,11,24,16,09,992.45
2011,11,24,16,10,992.48
2011,11,24,16,11,992.48
2011,11,24,16,12,992.45
2011,11,24,16,13,992.45
2011,11,24,16,14,992.38
2011,11,24,16,15,992.42
2011,11,24,16,16,992.38
2011,11,24,16,17,992.28